Regional Weather Roundup
Issued by NWS

Home | Current Version | Previous Version | Text Only | Print | Product List | Glossary On
Versions: 1 2 3 4 5 6 7 8 9 10 11 12 13 14 15 16 17 18 19 20 21 22 23 24 25 26 27 28 29 30 31 32 33 34 35 36 37 38 39 40 41 42 43 44 45 46 47 48 49 50
000
ASUS45 KTFX 050719
RWRMT
MONTANA REGIONAL WEATHER ROUNDUP
NATIONAL WEATHER SERVICE GREAT FALLS MT
100 AM MDT SAT SEP 05 2015

NOTE: "FAIR" INDICATES FEW OR NO CLOUDS BELOW 12000 FEET WITH NO
SIGNIFICANT WEATHER AND/OR OBSTRUCTIONS TO VISIBILITY.

MTZ001>007-043-050800-
WEST OF THE DIVIDE

CITY           SKY/WX    TMP DP  RH WIND       PRES   REMARKS
KALISPELL      CLOUDY    54  36  50 NE16      29.91S
MISSOULA       LGT RAIN  53  46  77 SE14      29.87S
BUTTE          CLOUDY    45  43  93 N3        29.91F
MULLAN PASS    LGT RAIN  41  39  93 VRB3      29.90R
EUREKA           N/A     50  39  66 W3        29.95S
HAMILTON         N/A     50  46  87 SE2       29.83F
LIBBY            N/A     55  36  47 CALM      29.91F
PLAINS           N/A     59  42  53 SW1       29.86F
RONAN            N/A     54  47  77 CALM      29.91F
THOMPSON FALLS   N/A     59  42  53 NE7       29.89R
$$

MTZ008-052>055-050800-
SOUTHWEST MONTANA

CITY           SKY/WX    TMP DP  RH WIND       PRES   REMARKS
BOZEMAN        CLOUDY    50  48  93 NW3       29.89F
DILLON         CLOUDY    48  42  80 E7        29.88S
W YELLOWSTONE  MOCLDY    46  45  93 CALM      29.94R
THREE FORKS      N/A     52  32  46 CALM      29.90F
TWIN BRIDGES     N/A     50  42  73 N13       29.87F
$$

MTZ009-010-012-014-046-048-049-054-050800-
EAST SLOPES AND CENTRAL MONTANA

CITY           SKY/WX    TMP DP  RH WIND       PRES   REMARKS
CUT BANK       LGT RAIN  44  43  96 N14       30.01F
GREAT FALLS    CLOUDY    49  48  97 NE15      29.95F
MALMSTROM AFB  CLOUDY    50  49  99 NE16G22   29.97F
HELENA         CLOUDY    48  45  89 NW8       29.93F
CONRAD           N/A     48  48 100 W5        30.02F
$$

MTZ011-013-016-021-045-047-050-051-050800-
NORTH CENTRAL MONTANA

CITY           SKY/WX    TMP DP  RH WIND       PRES   REMARKS
HAVRE          LGT RAIN  50  49  96 NE6       30.03F
LEWISTOWN      CLOUDY    51  47  86 E6        29.94F
N BAR RANCH    LGT RAIN  48  46  93 NW10      30.03R
CHINOOK          N/A     52  50  93 NW3       30.04R
FORT BENTON      N/A     52  50  93 NE8       30.00S
$$

MTZ017>020-022>027-061-062-050800-
NORTHEAST MONTANA

CITY           SKY/WX    TMP DP  RH WIND       PRES   REMARKS
GLASGOW        CLOUDY    56  46  69 NE18      29.96F
JORDAN           N/A     57  47  69 N16       29.94F
SIDNEY         CLOUDY    63  57  82 N7          N/A  THUNDER
WOLF POINT     CLOUDY    61  46  57 N10       29.97R
MALTA            N/A     52  46  79 N9        29.95R
PLENTYWOOD       N/A     55  48  76 NE16G22   29.92F
POPLAR           N/A     61  50  67 NE13      29.98R
SCOBEY           N/A     54  41  61 N14       29.97R
$$

MTZ028>42-056>058-050800-
SOUTHCENTRAL AND SOUTHEAST MONTANA

CITY           SKY/WX    TMP DP  RH WIND       PRES   REMARKS
BAKER          CLOUDY    62 N/A N/A NE15      29.85F
BILLINGS       MOCLDY    55  46  71 NE6       29.94S
LIVINGSTON     LGT RAIN  52  47  83 E23       29.91F
MILES CITY     MOCLDY    63  57  81 N12       29.83F
EKALAKA          N/A     65  55  69 SE6       29.84F
FORSYTH          N/A     61  52  72 W7        29.87F
LAUREL           N/A     54  47  77 NW2       29.94S
ROUNDUP          N/A     51  45  80 N2        29.89S
$$

REGIONAL REPORTS...DAKOTAS

CITY           SKY/WX    TMP DP  RH WIND       PRES   REMARKS
WILLISTON      CLOUDY    60  56  86 N16       29.91F
MINOT          CLOUDY    61  59  93 N14       29.91R FOG
DICKINSON      RAIN      63  61  93 W14G28    29.96R FOG
BEACH          TSTM      63  63 100 NE14      29.88F
CROSBY         CLOUDY    55  55 100 NE12      29.97S FOG
BISMARCK       CLEAR     69  66  90 NE7       29.84R
GRAND FORKS    CLEAR     66  64  93 N9        29.87R
FARGO          CLEAR     73  68  84 SE7       29.84R
BUFFALO SD       N/A     66  59  78 N14       29.80S
RAPID CITY     CLOUDY    70  59  68 E5        29.83R
$$

REGIONAL REPORTS...WYOMING/IDAHO/WASHINGTON

CITY           SKY/WX    TMP DP  RH WIND       PRES   REMARKS
GILLETTE       MOCLDY    60  55  83 CALM      29.91R
SHERIDAN       PTCLDY    56  48  74 CALM      29.91S
BUFFALO WY     PTCLDY    58  49  72 NW8       29.95S
CODY           PTCLDY    52  45  76 N3        29.94S
YELLOWSTONE LA   N/A     45  43  93 CALM      30.04S
IDAHO FALLS    PTCLDY    63  43  48 S16       29.76R
SALMON         CLOUDY    48  46  93 CALM      29.85F
BOISE          PTCLDY    50  43  77 NW5       29.88R
SPOKANE        RAIN      54  45  71 E6        29.85R
$$

REGIONAL REPORTS...ALBERTA

CITY           SKY/WX    TMP DP  RH WIND       PRES   REMARKS
EDMONTON       PTCLDY    45  39  81 W2        30.18F
CALGARY        LGT RAIN  43  41  93 N9        30.15F FOG
LETHBRIDGE     LGT RAIN  46  46 100 NE13G31   30.04F FOG
MEDICINE HAT   CLOUDY    48  45  87 NE8       30.08R
WATERTON GATE    N/A     39  37  93 NW5         N/A
CARDSTON         N/A     41  41 100 NW5         N/A
MILK RIVER       N/A     46  46 100 NW7         N/A
ONEFOUR          N/A     48  46  93 E14         N/A
$$

REGIONAL REPORTS...SASKATCHEWAN

CITY           SKY/WX    TMP DP  RH WIND       PRES   REMARKS
SWIFT CURRENT  LGT RAIN  48  46  93 NE9       30.04F
REGINA         MOCLDY    50  46  87 N7        30.03
SASKATOON      CLOUDY    50  45  81 NE9       30.14R
CYPRESS HILLS    N/A     41  39  93 N7          N/A
VAL MARIE        N/A     48  46  93 NE16G28     N/A
ROCKGLEN         N/A     48  46  93 N6          N/A
$$


USA.gov is the U.S. government's official web portal to all federal, state and local government web resources and services.